This is the latest recevied weather packets stored in our database for station/object F4GQK-13. If no packets are shown the sender has not sent any weather packets the latest 1 day(s).
| Time | Temp. | Humidity | Pressure | Rain* | Wind** | Luminosity | Snow |
|---|---|---|---|---|---|---|---|
| 1778011504 | 11.67° C | 99% | 1008.2 hPa | 1.02 mm | 1.34 m/s, 348° | 0 W/m² | - |
| 1778011205 | 12.22° C | 99% | 1008.3 hPa | 1.02 mm | 0.89 m/s, 347° | 0 W/m² | - |
| 1778010905 | 12.22° C | 99% | 1008 hPa | 1.27 mm | 0.89 m/s, 323° | 0 W/m² | - |
| 1778010605 | 12.22° C | 99% | 1007.9 hPa | 1.27 mm | 1.34 m/s, 299° | 0 W/m² | - |
| 1778010302 | 12.22° C | 99% | 1007.9 hPa | 1.27 mm | 1.34 m/s, 357° | 0 W/m² | - |
| 1778010005 | 12.22° C | 99% | 1007.9 hPa | 1.27 mm | 0.89 m/s, 2° | 0 W/m² | - |
| 1778009704 | 12.22° C | 99% | 1008.1 hPa | 1.02 mm | 1.34 m/s, 351° | 0 W/m² | - |
| 1778009404 | 12.22° C | 99% | 1007.8 hPa | 1.27 mm | 0.89 m/s, 3° | 0 W/m² | - |
| 1778009105 | 12.22° C | 99% | 1007.8 hPa | 1.27 mm | 2.68 m/s, 356° | 0 W/m² | - |
| 1778008805 | 12.22° C | 99% | 1007.7 hPa | 1.52 mm | 1.79 m/s, 357° | 0 W/m² | - |
| 1778008504 | 12.22° C | 98% | 1007.6 hPa | 2.03 mm | 1.79 m/s, 6° | 0 W/m² | - |
| 1778008204 | 12.22° C | 98% | 1007.7 hPa | 2.03 mm | 0.89 m/s, 3° | 1 W/m² | - |
| 1778007905 | 12.22° C | 98% | 1007.7 hPa | 2.03 mm | 1.79 m/s, 6° | 1 W/m² | - |
| 1778007605 | 12.22° C | 98% | 1007.5 hPa | 2.29 mm | 1.34 m/s, 38° | 2 W/m² | - |
| 1778007305 | 12.22° C | 98% | 1007.8 hPa | 2.29 mm | 1.34 m/s, 354° | 3 W/m² | - |
| 1778007005 | 12.22° C | 98% | 1007.7 hPa | 2.29 mm | 2.24 m/s, 13° | 5 W/m² | - |
| 1778006703 | 12.22° C | 98% | 1007.7 hPa | 2.03 mm | 1.79 m/s, 356° | 6 W/m² | - |
| 1778006403 | 12.22° C | 98% | 1007.4 hPa | 2.03 mm | 4.02 m/s, 8° | 8 W/m² | - |
| 1778006105 | 12.22° C | 98% | 1007.7 hPa | 2.29 mm | 3.13 m/s, 354° | 9 W/m² | - |
| 1778005805 | 12.22° C | 98% | 1007.5 hPa | 2.03 mm | 1.34 m/s, 354° | 9 W/m² | - |
| 1778005504 | 12.22° C | 98% | 1007.3 hPa | 1.78 mm | 2.68 m/s, 359° | 10 W/m² | - |
| 1778005205 | 12.78° C | 98% | 1007.5 hPa | 1.27 mm | 1.79 m/s, 3° | 12 W/m² | - |
| 1778004904 | 12.78° C | 98% | 1007.5 hPa | 1.02 mm | 1.79 m/s, 13° | 15 W/m² | - |
| 1778004605 | 12.78° C | 98% | 1007.4 hPa | 1.02 mm | 2.68 m/s, 309° | 18 W/m² | - |
| 1778004304 | 12.78° C | 98% | 1007.4 hPa | 0.76 mm | 1.79 m/s, 352° | 19 W/m² | - |
* Rain latest hour (hover to see other rain measurements)
** Current wind speed in m/s (hover to see current wind gust speed)